UAE1EW OMDB-HECA

Flight info

Callsign UAE1EW
Flight time N/A
Altitude 30000
Route ANVIX R401 GIDIS G783 TANSU/N0507F280 G783 ASNUR L883 PUSON/N0516F300 L883 KITUB Y511 DANOM/N0511F320 Y511 ELONU G799 PMA V10 PEGUR Z712 WEJ L677 CVO
Aircraft B77W/H-SDE1E2E3FGHIJ2J3J4J5M1RWXY/LB1D1

Departure

Time 2026-04-21 08:21
Airport Dubai International Airport (OMDB)

Arrival

Time N/A
Airport Cairo International Airport (HECA)
Time Latitude Longitude Altitude Speed Heading
2026-04-21 07:38 25.25523 55.35143 75 ft 0 kts 211°
2026-04-21 08:07 25.25530 55.35148 75 ft 2 kts 211°
2026-04-21 08:07 25.25543 55.35157 75 ft 2 kts 211°
2026-04-21 08:07 25.25556 55.35165 75 ft 2 kts 220°
2026-04-21 08:07 25.25566 55.35178 75 ft 2 kts 236°
2026-04-21 08:08 25.25573 55.35192 75 ft 2 kts 249°
2026-04-21 08:08 25.25577 55.35207 75 ft 2 kts 262°
2026-04-21 08:08 25.25578 55.35223 75 ft 2 kts 275°
2026-04-21 08:08 25.25575 55.35240 75 ft 2 kts 288°
2026-04-21 08:09 25.25569 55.35254 75 ft 0 kts 300°
2026-04-21 08:09 25.25568 55.35257 75 ft 0 kts 302°
2026-04-21 08:11 25.25574 55.35247 75 ft 3 kts 302°
2026-04-21 08:12 25.25595 55.35209 75 ft 7 kts 302°
2026-04-21 08:12 25.25631 55.35146 75 ft 11 kts 302°
2026-04-21 08:12 25.25634 55.35141 75 ft 0 kts 302°
2026-04-21 08:12 25.25637 55.35137 75 ft 1 kts 310°
2026-04-21 08:13 25.25641 55.35135 75 ft 0 kts 340°
2026-04-21 08:13 25.25647 55.35135 75 ft 1 kts
2026-04-21 08:13 25.25665 55.35146 75 ft 5 kts 33°
2026-04-21 08:13 25.25716 55.35183 75 ft 11 kts 31°
2026-04-21 08:14 25.25801 55.35238 75 ft 16 kts 31°
2026-04-21 08:14 25.25908 55.35313 75 ft 17 kts 33°
2026-04-21 08:14 25.25990 55.35404 75 ft 16 kts 64°
2026-04-21 08:14 25.25991 55.35519 75 ft 15 kts 110°
2026-04-21 08:15 25.25937 55.35625 75 ft 16 kts 121°
2026-04-21 08:15 25.25876 55.35733 75 ft 17 kts 121°
2026-04-21 08:15 25.25808 55.35856 75 ft 19 kts 121°
2026-04-21 08:15 25.25735 55.35989 75 ft 21 kts 121°
2026-04-21 08:16 25.25654 55.36136 75 ft 22 kts 121°
2026-04-21 08:16 25.25568 55.36290 75 ft 24 kts 121°
2026-04-21 08:16 25.25476 55.36455 76 ft 25 kts 122°
2026-04-21 08:16 25.25383 55.36623 76 ft 25 kts 121°
2026-04-21 08:17 25.25290 55.36791 76 ft 26 kts 121°
2026-04-21 08:17 25.25194 55.36964 76 ft 26 kts 121°
2026-04-21 08:17 25.25101 55.37135 76 ft 25 kts 121°
2026-04-21 08:17 25.25011 55.37296 76 ft 23 kts 121°
2026-04-21 08:18 25.24928 55.37444 76 ft 21 kts 121°
2026-04-21 08:18 25.24853 55.37580 76 ft 19 kts 121°
2026-04-21 08:18 25.24785 55.37704 76 ft 18 kts 121°
2026-04-21 08:18 25.24725 55.37813 76 ft 12 kts 121°
2026-04-21 08:19 25.24720 55.37862 76 ft 6 kts 52°
2026-04-21 08:19 25.24764 55.37902 76 ft 10 kts 34°
2026-04-21 08:19 25.24826 55.37940 76 ft 6 kts 17°
2026-04-21 08:19 25.24861 55.37926 76 ft 6 kts 310°
2026-04-21 08:20 25.24903 55.37853 76 ft 25 kts 302°
2026-04-21 08:20 25.25129 55.37448 76 ft 96 kts 301°
2026-04-21 08:20 25.25592 55.36614 76 ft 158 kts 301°
2026-04-21 08:20 25.26207 55.35485 441 ft 177 kts 301°
2026-04-21 08:21 25.26848 55.34282 1045 ft 189 kts 302°
2026-04-21 08:21 25.27539 55.33033 1818 ft 194 kts 302°
2026-04-21 08:21 25.28243 55.31771 2402 ft 196 kts 303°
2026-04-21 08:21 25.28914 55.30463 2957 ft 198 kts 291°
2026-04-21 08:22 25.29123 55.28960 3473 ft 203 kts 266°
2026-04-21 08:22 25.28739 55.27461 3971 ft 208 kts 246°
2026-04-21 08:22 25.28118 55.26050 4566 ft 207 kts 245°
2026-04-21 08:22 25.27495 55.24615 5161 ft 207 kts 246°
2026-04-21 08:23 25.26882 55.23175 5713 ft 208 kts 246°
2026-04-21 08:23 25.26273 55.21742 6250 ft 208 kts 245°
2026-04-21 08:23 25.25651 55.20276 6617 ft 219 kts 246°
2026-04-21 08:23 25.24961 55.18703 6855 ft 237 kts 239°
2026-04-21 08:24 25.23799 55.17379 7334 ft 246 kts 212°
2026-04-21 08:24 25.22165 55.16763 7779 ft 258 kts 186°
2026-04-21 08:24 25.20319 55.16828 8261 ft 268 kts 171°
2026-04-21 08:24 25.18591 55.17624 8793 ft 276 kts 143°
2026-04-21 08:25 25.17320 55.19241 9074 ft 295 kts 120°
2026-04-21 08:25 25.16373 55.21323 9504 ft 305 kts 116°
2026-04-21 08:25 25.15440 55.23408 10129 ft 307 kts 117°
2026-04-21 08:25 25.14460 55.25502 10851 ft 308 kts 118°
2026-04-21 08:26 25.13449 55.27620 11536 ft 311 kts 118°
2026-04-21 08:26 25.12440 55.29721 12267 ft 314 kts 118°
2026-04-21 08:26 25.11415 55.31851 13054 ft 317 kts 118°
2026-04-21 08:26 25.10381 55.34014 13798 ft 321 kts 117°
2026-04-21 08:27 25.09446 55.36274 14499 ft 327 kts 115°
2026-04-21 08:27 25.08534 55.38558 15276 ft 332 kts 115°
2026-04-21 08:27 25.07582 55.40906 16059 ft 337 kts 116°
2026-04-21 08:27 25.06637 55.43256 16664 ft 347 kts 115°
2026-04-21 08:28 25.05670 55.45783 17070 ft 365 kts 115°
2026-04-21 08:28 25.04457 55.48262 17429 ft 379 kts 124°
2026-04-21 08:28 25.03009 55.50798 17859 ft 396 kts 124°
2026-04-21 08:28 25.01516 55.53392 18344 ft 411 kts 124°
2026-04-21 08:29 24.99951 55.56108 18770 ft 427 kts 124°
2026-04-21 08:29 24.98343 55.58898 19235 ft 442 kts 124°
2026-04-21 08:29 24.96662 55.61815 19684 ft 457 kts 124°
2026-04-21 08:29 24.94957 55.64772 20346 ft 464 kts 124°
2026-04-21 08:30 24.93214 55.67795 21229 ft 466 kts 125°
2026-04-21 08:30 24.91472 55.70815 21981 ft 470 kts 124°
2026-04-21 08:30 24.89718 55.73854 22582 ft 478 kts 125°
2026-04-21 08:30 24.87936 55.76938 23220 ft 484 kts 124°
2026-04-21 08:31 24.86133 55.80058 23986 ft 487 kts 124°
2026-04-21 08:31 24.84282 55.83203 24678 ft 490 kts 128°
2026-04-21 08:31 24.82109 55.86094 25301 ft 492 kts 136°
2026-04-21 08:31 24.79548 55.88591 25883 ft 494 kts 146°
2026-04-21 08:32 24.76643 55.90637 26500 ft 495 kts 155°
2026-04-21 08:32 24.73496 55.92173 27145 ft 495 kts 163°
2026-04-21 08:32 24.70180 55.93176 27758 ft 496 kts 172°
2026-04-21 08:32 24.66765 55.93626 28323 ft 497 kts 180°
2026-04-21 08:33 24.63293 55.93509 28849 ft 499 kts 189°
2026-04-21 08:33 24.59925 55.92831 29386 ft 500 kts 198°
2026-04-21 08:33 24.56637 55.91577 30067 ft 498 kts 206°
2026-04-21 08:33 24.53618 55.89814 30963 ft 490 kts 216°
2026-04-21 08:34 24.50911 55.87602 31991 ft 479 kts 225°
2026-04-21 08:34 24.48595 55.85029 32913 ft 468 kts 233°
2026-04-21 08:34 24.46512 55.82355 33770 ft 463 kts 233°
2026-04-21 08:34 24.44369 55.79739 34482 ft 461 kts 232°
2026-04-21 08:35 24.42152 55.77200 35030 ft 461 kts 231°
2026-04-21 08:35 24.39871 55.74714 35526 ft 462 kts 231°
2026-04-21 08:35 24.37541 55.72262 35871 ft 464 kts 231°
2026-04-21 08:36 24.32749 55.67406 35890 ft 463 kts 229°
2026-04-21 08:36 24.27855 55.62771 35870 ft 468 kts 222°
2026-04-21 08:37 24.22000 55.59468 35866 ft 481 kts 206°
2026-04-21 08:37 24.15447 55.57439 35868 ft 492 kts 202°
2026-04-21 08:38 24.08831 55.55479 35867 ft 495 kts 202°
2026-04-21 08:38 24.02162 55.53500 35862 ft 492 kts 202°
2026-04-21 08:39 23.95559 55.51541 35862 ft 493 kts 202°
2026-04-21 08:39 23.88928 55.49575 35852 ft 494 kts 202°
2026-04-21 08:40 23.82287 55.47607 35835 ft 494 kts 203°
2026-04-21 08:40 23.75655 55.45638 35837 ft 493 kts 202°
2026-04-21 08:41 23.68969 55.43653 35827 ft 498 kts 202°
2026-04-21 08:41 23.62302 55.41680 35826 ft 493 kts 203°
2026-04-21 08:42 23.55686 55.39721 35823 ft 497 kts 203°
2026-04-21 08:42 23.48987 55.37740 35822 ft 497 kts 202°
2026-04-21 08:43 23.42320 55.35768 35815 ft 497 kts 203°
2026-04-21 08:43 23.35653 55.33799 35828 ft 499 kts 202°
2026-04-21 08:44 23.28925 55.31813 35828 ft 499 kts 202°
2026-04-21 08:44 23.22215 55.29835 35819 ft 501 kts 202°
2026-04-21 08:45 23.15477 55.27851 35827 ft 498 kts 202°
2026-04-21 08:45 23.08964 55.25436 35816 ft 489 kts 215°
2026-04-21 08:46 23.03485 55.21244 35808 ft 474 kts 232°
2026-04-21 08:46 23.01299 55.18618 35815 ft 459 kts 239°
2026-04-21 08:46 22.99543 55.15792 35810 ft 447 kts 247°
2026-04-21 08:47 22.96769 55.09776 35821 ft 448 kts 251°
2026-04-21 08:47 22.94083 55.03719 35838 ft 443 kts 251°
2026-04-21 08:48 22.91440 54.97718 35840 ft 445 kts 251°
2026-04-21 08:48 22.88766 54.91628 35830 ft 446 kts 251°
2026-04-21 08:49 22.86123 54.85605 35827 ft 444 kts 251°
2026-04-21 08:49 22.83460 54.79534 35820 ft 446 kts 251°
2026-04-21 08:50 22.80802 54.73485 35816 ft 443 kts 251°
2026-04-21 08:50 22.78180 54.67522 35815 ft 441 kts 252°
2026-04-21 08:51 22.75513 54.61457 35820 ft 446 kts 251°
2026-04-21 08:51 22.72852 54.55420 35816 ft 444 kts 251°
2026-04-21 08:52 22.70198 54.49404 35822 ft 442 kts 251°
2026-04-21 08:52 22.67549 54.43396 35821 ft 445 kts 251°
2026-04-21 08:53 22.64892 54.37371 35818 ft 443 kts 251°
2026-04-21 08:53 22.62224 54.31327 35828 ft 445 kts 251°
2026-04-21 08:54 22.59569 54.25322 35826 ft 446 kts 251°
2026-04-21 08:54 22.56900 54.19295 35824 ft 441 kts 251°
2026-04-21 08:55 22.54252 54.13316 35828 ft 446 kts 251°
2026-04-21 08:55 22.51579 54.07295 35831 ft 444 kts 251°
2026-04-21 08:56 22.48916 54.01300 35838 ft 444 kts 251°
2026-04-21 08:56 22.46238 53.95282 35837 ft 444 kts 251°
2026-04-21 08:57 22.43572 53.89295 35832 ft 442 kts 251°
2026-04-21 08:57 22.40911 53.83327 35825 ft 442 kts 251°
2026-04-21 08:58 22.38237 53.77337 35818 ft 444 kts 251°
2026-04-21 08:58 22.35577 53.71385 35813 ft 443 kts 251°
2026-04-21 08:59 22.32889 53.65379 35809 ft 442 kts 251°
2026-04-21 08:59 22.30230 53.59444 35807 ft 445 kts 251°
2026-04-21 09:00 22.27540 53.53446 35800 ft 441 kts 251°
2026-04-21 09:00 22.24855 53.47464 35795 ft 445 kts 251°
2026-04-21 09:01 22.22170 53.41493 35793 ft 443 kts 251°
2026-04-21 09:01 22.19478 53.35512 35788 ft 443 kts 251°
2026-04-21 09:02 22.16776 53.29514 35806 ft 446 kts 251°
2026-04-21 09:02 22.14081 53.23542 35813 ft 441 kts 251°
2026-04-21 09:03 22.10047 53.14612 35819 ft 443 kts 251°
2026-04-21 09:03 22.07358 53.08671 35817 ft 440 kts 251°
2026-04-21 09:04 22.04662 53.02717 35817 ft 443 kts 251°
2026-04-21 09:04 22.01970 52.96783 35815 ft 442 kts 251°
2026-04-21 09:05 21.99264 52.90822 35813 ft 443 kts 251°
2026-04-21 09:05 21.96570 52.84898 35811 ft 440 kts 251°
2026-04-21 09:06 21.93864 52.78949 35813 ft 442 kts 251°
2026-04-21 09:06 21.91158 52.73011 35810 ft 443 kts 251°
2026-04-21 09:07 21.88433 52.67041 35797 ft 441 kts 251°
2026-04-21 09:07 21.85721 52.61105 35787 ft 444 kts 251°
2026-04-21 09:08 21.83023 52.55213 35786 ft 442 kts 251°
2026-04-21 09:08 21.80291 52.49248 35787 ft 441 kts 251°
2026-04-21 09:09 21.79841 52.48267 35788 ft 441 kts 251°